Year,Month,Day,Hour,Minute,Value (Times are PST for temperature in C)
2016,04,20,00,00,13.80
2016,04,20,00,01,13.80
2016,04,20,00,02,13.80
2016,04,20,00,03,13.80
2016,04,20,04,34,11.00
2016,04,20,04,35,11.00
2016,04,20,04,36,11.10
2016,04,20,04,37,11.10
2016,04,20,04,38,11.10
2016,04,20,04,39,11.10
2016,04,20,04,40,11.20
2016,04,20,04,41,11.20
2016,04,20,04,42,11.20
2016,04,20,04,43,11.20
2016,04,20,04,44,11.20
2016,04,20,04,45,11.20
2016,04,20,04,46,11.20
2016,04,20,04,47,11.30
2016,04,20,04,48,11.30
2016,04,20,04,49,11.30
2016,04,20,04,50,11.20
2016,04,20,04,51,11.20
2016,04,20,04,52,11.20
2016,04,20,04,53,11.20
2016,04,20,04,54,11.20
2016,04,20,04,55,11.20
2016,04,20,04,56,11.20
2016,04,20,04,57,11.20
2016,04,20,04,58,11.20
2016,04,20,04,59,11.10
2016,04,20,05,00,11.10
2016,04,20,05,01,11.10
2016,04,20,05,02,11.10
2016,04,20,05,03,11.10
2016,04,20,05,04,11.00
2016,04,20,05,05,11.00
2016,04,20,05,06,11.10
2016,04,20,05,07,11.00
2016,04,20,05,08,11.00
2016,04,20,05,09,11.00
2016,04,20,05,10,11.00
2016,04,20,05,11,11.00
2016,04,20,05,12,10.90
2016,04,20,05,13,10.90
2016,04,20,05,14,10.90
2016,04,20,05,15,10.90
2016,04,20,05,16,10.80
2016,04,20,05,17,10.80
2016,04,20,05,18,10.80
2016,04,20,05,19,10.80
2016,04,20,05,20,10.80
2016,04,20,05,21,10.80
2016,04,20,05,22,10.80
2016,04,20,05,23,10.80
2016,04,20,05,24,10.70
2016,04,20,05,25,10.70
2016,04,20,05,26,10.70
2016,04,20,05,27,10.70
2016,04,20,05,28,10.70
2016,04,20,05,29,10.70
2016,04,20,05,30,10.70
2016,04,20,05,31,10.70
2016,04,20,05,32,10.60
2016,04,20,05,33,10.60
2016,04,20,05,34,10.60
2016,04,20,05,35,10.60
2016,04,20,05,36,10.60
2016,04,20,05,37,10.60
2016,04,20,05,38,10.60
2016,04,20,05,39,10.60
2016,04,20,05,40,10.60
2016,04,20,05,41,10.60
2016,04,20,05,42,10.60
2016,04,20,05,43,10.60
2016,04,20,05,44,10.60
2016,04,20,05,45,10.50
2016,04,20,05,46,10.50
2016,04,20,05,47,10.50
2016,04,20,05,48,10.50
2016,04,20,05,49,10.50
2016,04,20,05,50,10.50
2016,04,20,05,51,10.50
2016,04,20,05,52,10.50
2016,04,20,05,53,10.50
2016,04,20,05,54,10.50
2016,04,20,05,55,10.50
2016,04,20,05,56,10.40
2016,04,20,05,57,10.50
2016,04,20,05,58,10.50
2016,04,20,05,59,10.50
2016,04,20,06,00,10.50
2016,04,20,06,01,10.50
2016,04,20,06,02,10.50
2016,04,20,06,03,10.50
2016,04,20,06,04,10.50
2016,04,20,06,05,10.50
2016,04,20,06,06,10.50
2016,04,20,06,07,10.40
2016,04,20,06,08,10.40
2016,04,20,06,09,10.40
2016,04,20,06,10,10.40
2016,04,20,06,11,10.30
2016,04,20,06,12,10.30
2016,04,20,06,13,10.30
2016,04,20,06,14,10.30
2016,04,20,06,15,10.30
2016,04,20,06,16,10.30
2016,04,20,06,17,10.30
2016,04,20,06,18,10.20
2016,04,20,06,19,10.20
2016,04,20,06,20,10.20
2016,04,20,06,21,10.20
2016,04,20,06,22,10.20
2016,04,20,06,23,10.20
2016,04,20,06,24,10.20
2016,04,20,06,25,10.20
2016,04,20,06,26,10.20
2016,04,20,06,27,10.20
2016,04,20,06,28,10.20
2016,04,20,06,29,10.20
2016,04,20,06,30,10.20
2016,04,20,06,31,10.20
2016,04,20,06,32,10.30
2016,04,20,06,33,10.30
2016,04,20,06,34,10.30
2016,04,20,06,35,10.40
2016,04,20,06,36,10.50
2016,04,20,06,37,10.60
2016,04,20,06,38,10.70
2016,04,20,06,39,10.70
2016,04,20,06,40,10.80
2016,04,20,06,41,10.80
2016,04,20,06,42,10.90
2016,04,20,06,43,10.90
2016,04,20,06,44,11.00
2016,04,20,06,45,11.10
2016,04,20,06,46,11.10
2016,04,20,06,47,11.20
2016,04,20,06,48,11.20
2016,04,20,06,49,11.30
2016,04,20,06,50,11.30
2016,04,20,06,51,11.40
2016,04,20,06,52,11.40
2016,04,20,06,53,11.50
2016,04,20,06,54,11.50
2016,04,20,06,55,11.60
2016,04,20,06,56,11.70
2016,04,20,06,57,11.70
2016,04,20,06,58,11.80
2016,04,20,06,59,11.90
2016,04,20,07,00,11.90
2016,04,20,07,01,11.90
2016,04,20,07,02,11.90
2016,04,20,07,03,11.90
2016,04,20,07,04,11.90
2016,04,20,07,05,11.90
2016,04,20,07,06,11.90
2016,04,20,07,07,12.00
2016,04,20,07,08,12.10
2016,04,20,07,09,12.20
2016,04,20,07,10,12.30
2016,04,20,07,11,12.40
2016,04,20,07,12,12.50
2016,04,20,07,13,12.60
2016,04,20,07,14,12.80
2016,04,20,07,15,12.90
2016,04,20,07,16,13.00
2016,04,20,07,17,13.00
2016,04,20,07,18,13.10
2016,04,20,07,19,13.20
2016,04,20,07,20,13.20
2016,04,20,07,21,13.30
2016,04,20,07,22,13.30
2016,04,20,07,23,13.40
2016,04,20,07,24,13.40
2016,04,20,07,25,13.50
2016,04,20,07,26,13.50
2016,04,20,07,27,13.60
2016,04,20,07,28,13.70
2016,04,20,07,29,13.80
2016,04,20,07,30,13.90
2016,04,20,07,31,14.00
2016,04,20,07,32,14.10
2016,04,20,07,33,14.20
2016,04,20,07,34,14.30
2016,04,20,07,35,14.30
2016,04,20,07,36,14.40
2016,04,20,07,37,14.50
2016,04,20,07,38,14.50
2016,04,20,07,39,14.60
2016,04,20,07,40,14.70
2016,04,20,07,41,14.70
2016,04,20,07,42,14.80
2016,04,20,07,43,14.80
2016,04,20,07,44,14.90
2016,04,20,07,45,15.00
2016,04,20,07,46,15.10
2016,04,20,07,47,15.10
2016,04,20,07,48,15.20
2016,04,20,07,49,15.30
2016,04,20,07,50,15.30
2016,04,20,07,51,15.40
2016,04,20,07,52,15.50
2016,04,20,07,53,15.50
2016,04,20,07,54,15.60
2016,04,20,07,55,15.70
2016,04,20,07,56,15.70
2016,04,20,07,57,15.70
2016,04,20,07,58,15.80
2016,04,20,07,59,15.80
2016,04,20,08,00,15.80
2016,04,20,08,01,15.80
2016,04,20,08,02,15.80
2016,04,20,08,03,15.80
2016,04,20,08,04,15.80
2016,04,20,08,05,15.80
2016,04,20,08,06,15.80
2016,04,20,08,07,15.80
2016,04,20,08,08,15.80
2016,04,20,08,09,15.80
2016,04,20,08,10,15.70
2016,04,20,08,11,15.70
2016,04,20,08,12,15.70
2016,04,20,08,13,15.70
2016,04,20,08,14,15.70
2016,04,20,08,15,15.70
2016,04,20,08,16,15.70
2016,04,20,08,17,15.70
2016,04,20,08,18,15.80
2016,04,20,08,19,15.80
2016,04,20,08,20,15.80
2016,04,20,08,21,15.80
2016,04,20,08,22,15.80
2016,04,20,08,23,15.90
2016,04,20,08,24,15.90
2016,04,20,08,25,15.90
2016,04,20,08,26,16.00
2016,04,20,08,27,16.00
2016,04,20,08,28,16.10
2016,04,20,08,29,16.10
2016,04,20,08,30,16.10
2016,04,20,08,31,16.20
2016,04,20,08,32,16.20
2016,04,20,08,33,16.30
2016,04,20,08,34,16.30
2016,04,20,08,35,16.30
2016,04,20,08,36,16.40
2016,04,20,08,37,16.40
2016,04,20,08,38,16.40
2016,04,20,08,39,16.40
2016,04,20,08,40,16.40
2016,04,20,08,41,16.50
2016,04,20,08,42,16.50
2016,04,20,08,43,16.50
2016,04,20,08,44,16.50
2016,04,20,08,45,16.50
2016,04,20,08,46,16.50
2016,04,20,08,47,16.50
2016,04,20,08,48,16.60
2016,04,20,08,49,16.60
2016,04,20,08,50,16.60
2016,04,20,08,51,16.70
2016,04,20,08,52,16.70
2016,04,20,08,53,16.70
2016,04,20,08,54,16.80
2016,04,20,08,55,16.80
2016,04,20,08,56,16.80
2016,04,20,08,57,16.90
2016,04,20,08,58,16.90
2016,04,20,08,59,17.00
2016,04,20,09,00,17.00
2016,04,20,09,01,17.10
2016,04,20,09,02,17.10
2016,04,20,09,03,17.20
2016,04,20,09,04,17.20
2016,04,20,09,05,17.30
2016,04,20,09,06,17.30
2016,04,20,09,07,17.30
2016,04,20,09,08,17.40
2016,04,20,09,09,17.40
2016,04,20,09,10,17.40
2016,04,20,09,11,17.40
2016,04,20,09,12,17.50
2016,04,20,09,13,17.50
2016,04,20,09,14,17.60
2016,04,20,09,15,17.60
2016,04,20,09,16,17.60
2016,04,20,09,17,17.60
2016,04,20,09,18,17.60
2016,04,20,09,19,17.70
2016,04,20,09,20,17.70
2016,04,20,09,21,17.70
2016,04,20,09,22,17.70
2016,04,20,09,23,17.70
2016,04,20,09,24,17.70
2016,04,20,09,25,17.70
2016,04,20,09,26,17.70
2016,04,20,09,27,17.70
2016,04,20,09,28,17.70
2016,04,20,09,29,17.70
2016,04,20,09,30,17.80
2016,04,20,09,31,17.80
2016,04,20,09,32,17.80
2016,04,20,09,33,17.80
2016,04,20,09,34,17.80
2016,04,20,09,35,17.80
2016,04,20,09,36,17.90
2016,04,20,09,37,17.90
2016,04,20,09,38,17.90
2016,04,20,09,39,17.90
2016,04,20,09,40,18.00
2016,04,20,09,41,18.00
2016,04,20,09,42,18.10
2016,04,20,09,43,18.10
2016,04,20,09,44,18.20
2016,04,20,09,45,18.20
2016,04,20,09,46,18.20
2016,04,20,09,47,18.30
2016,04,20,09,48,18.30
2016,04,20,09,49,18.30
2016,04,20,09,50,18.30
2016,04,20,09,51,18.40
2016,04,20,09,52,18.40
2016,04,20,09,53,18.50
2016,04,20,09,54,18.50
2016,04,20,09,55,18.50
2016,04,20,09,56,18.50
2016,04,20,09,57,18.60
2016,04,20,09,58,18.60
2016,04,20,09,59,18.60
2016,04,20,10,00,18.60
2016,04,20,10,01,18.70
2016,04,20,10,02,18.70
2016,04,20,10,03,18.70
2016,04,20,10,04,18.70
2016,04,20,10,05,18.70
2016,04,20,10,06,18.70
2016,04,20,10,07,18.80
2016,04,20,10,08,18.80
2016,04,20,10,09,18.80
2016,04,20,10,10,18.80
2016,04,20,10,11,18.80
2016,04,20,10,12,18.80
2016,04,20,10,13,18.80
2016,04,20,10,14,18.70
2016,04,20,10,15,18.80
2016,04,20,10,16,18.80
2016,04,20,10,17,18.80
2016,04,20,10,18,18.80
2016,04,20,10,19,18.80
2016,04,20,10,20,18.80
2016,04,20,10,21,18.80
2016,04,20,10,22,18.80
2016,04,20,10,23,18.80
2016,04,20,10,24,18.80
2016,04,20,10,25,18.80
2016,04,20,10,26,18.80
2016,04,20,10,27,18.80
2016,04,20,10,28,18.80
2016,04,20,10,29,18.80
2016,04,20,10,30,18.90
2016,04,20,10,31,18.90
2016,04,20,10,32,18.90
2016,04,20,10,33,18.90
2016,04,20,10,34,19.00
2016,04,20,10,35,19.00
2016,04,20,10,36,19.00
2016,04,20,10,37,19.00
2016,04,20,10,38,19.00
2016,04,20,10,39,19.00
2016,04,20,10,40,19.00
2016,04,20,10,41,18.90
2016,04,20,10,42,18.90
2016,04,20,10,43,18.90
2016,04,20,10,44,18.90
2016,04,20,10,45,18.90
2016,04,20,10,46,18.90
2016,04,20,10,47,19.00
2016,04,20,10,48,19.00
2016,04,20,10,49,19.00
2016,04,20,10,50,19.00
2016,04,20,10,51,19.00
2016,04,20,10,52,18.90
2016,04,20,10,53,18.90
2016,04,20,10,54,18.90
2016,04,20,10,55,18.90
2016,04,20,10,56,18.90
2016,04,20,10,57,18.90
2016,04,20,10,58,18.90
2016,04,20,10,59,18.80
2016,04,20,11,00,18.80
2016,04,20,11,01,18.80
2016,04,20,11,02,18.80
2016,04,20,11,03,18.80
2016,04,20,11,04,18.80
2016,04,20,11,05,18.80
2016,04,20,11,06,18.80
2016,04,20,11,07,18.80
2016,04,20,11,08,18.80
2016,04,20,11,09,18.80
2016,04,20,11,10,18.70
2016,04,20,11,11,18.70
2016,04,20,11,12,18.70
2016,04,20,11,13,18.70
2016,04,20,11,14,18.70
2016,04,20,11,15,18.70
2016,04,20,11,16,18.70
2016,04,20,11,17,18.70
2016,04,20,11,18,18.70
2016,04,20,11,19,18.70
2016,04,20,11,20,18.70
2016,04,20,11,21,18.70
2016,04,20,11,22,18.80
2016,04,20,11,23,18.80
2016,04,20,11,24,18.80
2016,04,20,11,25,18.90
2016,04,20,11,26,18.90
2016,04,20,11,27,19.00
2016,04,20,11,28,19.00
2016,04,20,11,29,19.10
2016,04,20,11,30,19.10
2016,04,20,11,31,19.10
2016,04,20,11,32,19.20
2016,04,20,11,33,19.20
2016,04,20,11,34,19.30
2016,04,20,11,35,19.30
2016,04,20,11,36,19.40
2016,04,20,11,37,19.50
2016,04,20,11,38,19.60
2016,04,20,11,39,19.60
2016,04,20,11,40,19.70
2016,04,20,11,41,19.70
2016,04,20,11,42,19.80
2016,04,20,11,43,19.80
2016,04,20,11,44,19.90
2016,04,20,11,45,20.00
2016,04,20,11,46,20.00
2016,04,20,11,47,20.10
2016,04,20,11,48,20.10
2016,04,20,11,49,20.20
2016,04,20,11,50,20.20
2016,04,20,11,51,20.30
2016,04,20,11,52,20.30
2016,04,20,11,53,20.30
2016,04,20,11,54,20.40
2016,04,20,11,55,20.40
2016,04,20,11,56,20.40
2016,04,20,11,57,20.50
2016,04,20,11,58,20.50
2016,04,20,11,59,20.60
2016,04,20,12,00,20.60
2016,04,20,12,01,20.60
2016,04,20,12,02,20.70
2016,04,20,12,03,20.70
2016,04,20,12,04,20.70
2016,04,20,12,05,20.70
2016,04,20,12,06,20.60
2016,04,20,12,07,20.60
2016,04,20,12,08,20.50
2016,04,20,12,09,20.40
2016,04,20,12,10,20.30
2016,04,20,12,11,20.30
2016,04,20,12,12,20.20
2016,04,20,12,13,20.20
2016,04,20,12,14,20.20
2016,04,20,12,15,20.20
2016,04,20,12,16,20.20
2016,04,20,12,17,20.20
2016,04,20,12,18,20.20
2016,04,20,12,19,20.20
2016,04,20,12,20,20.30
2016,04,20,12,21,20.30
2016,04,20,12,22,20.30
2016,04,20,12,23,20.30
2016,04,20,12,24,20.30
2016,04,20,12,25,20.30
2016,04,20,12,26,20.40
2016,04,20,12,27,20.40
2016,04,20,12,28,20.40
2016,04,20,12,29,20.40
2016,04,20,12,30,20.50
2016,04,20,12,31,20.50
2016,04,20,12,32,20.50
2016,04,20,12,33,20.50
2016,04,20,12,34,20.50
2016,04,20,12,35,20.60
2016,04,20,12,36,20.60
2016,04,20,12,37,20.60
2016,04,20,12,38,20.60
2016,04,20,12,39,20.70
2016,04,20,12,40,20.70
2016,04,20,12,41,20.70
2016,04,20,12,42,20.70
2016,04,20,12,43,20.70
2016,04,20,12,44,20.70
2016,04,20,12,45,20.80
2016,04,20,12,46,20.80
2016,04,20,12,47,20.80
2016,04,20,12,48,20.80
2016,04,20,12,49,20.80
2016,04,20,12,50,20.80
2016,04,20,12,51,20.80
2016,04,20,12,52,20.80
2016,04,20,12,53,20.80
2016,04,20,12,54,20.90
2016,04,20,12,55,20.90
2016,04,20,12,56,20.90
2016,04,20,12,57,20.90
2016,04,20,12,58,20.90
2016,04,20,12,59,20.90
2016,04,20,13,00,21.00
2016,04,20,13,01,21.00
2016,04,20,13,02,21.10
2016,04,20,13,03,21.10
2016,04,20,13,04,21.20
2016,04,20,13,05,21.20
2016,04,20,13,06,21.30
2016,04,20,13,07,21.30
2016,04,20,13,08,21.30
2016,04,20,13,09,21.40
2016,04,20,13,10,21.40
2016,04,20,13,11,21.40
2016,04,20,13,12,21.50
2016,04,20,13,13,21.50
2016,04,20,13,14,21.50
2016,04,20,13,15,21.40
2016,04,20,13,16,21.40
2016,04,20,13,17,21.40
2016,04,20,13,18,21.30
2016,04,20,13,19,21.30
2016,04,20,13,20,21.20
2016,04,20,13,21,21.20
2016,04,20,13,22,21.20
2016,04,20,13,23,21.20
2016,04,20,13,24,21.20
2016,04,20,13,25,21.10
2016,04,20,13,26,21.10
2016,04,20,13,27,21.10
2016,04,20,13,28,21.10
2016,04,20,13,29,21.10
2016,04,20,13,30,21.10
2016,04,20,13,31,21.20
2016,04,20,13,32,21.20
2016,04,20,13,33,21.20
2016,04,20,13,34,21.20
2016,04,20,13,35,21.20
2016,04,20,13,36,21.20
2016,04,20,13,37,21.20
2016,04,20,13,38,21.20
2016,04,20,13,39,21.20
2016,04,20,13,40,21.20
2016,04,20,13,41,21.20
2016,04,20,13,42,21.20
2016,04,20,13,43,21.20
2016,04,20,13,44,21.20
2016,04,20,13,45,21.20
2016,04,20,13,46,21.20
2016,04,20,13,47,21.20
2016,04,20,13,48,21.20
2016,04,20,13,49,21.20
2016,04,20,13,50,21.30
2016,04,20,13,51,21.30
2016,04,20,13,52,21.30
2016,04,20,13,53,21.40
2016,04,20,13,54,21.40
2016,04,20,13,55,21.40
2016,04,20,13,56,21.50
2016,04,20,13,57,21.50
2016,04,20,13,58,21.50
2016,04,20,13,59,21.60
2016,04,20,14,00,21.60
2016,04,20,14,01,21.60
2016,04,20,14,02,21.70
2016,04,20,14,03,21.70
2016,04,20,14,04,21.80
2016,04,20,14,05,21.80
2016,04,20,14,06,21.90
2016,04,20,14,07,21.90
2016,04,20,14,08,21.90
2016,04,20,14,09,21.90
2016,04,20,14,10,21.90
2016,04,20,14,11,21.90
2016,04,20,14,12,21.90
2016,04,20,14,13,22.00
2016,04,20,14,14,22.00
2016,04,20,14,15,22.10
2016,04,20,14,16,22.10
2016,04,20,14,17,22.10
2016,04,20,14,18,22.10
2016,04,20,14,19,22.10
2016,04,20,14,20,22.10
2016,04,20,14,21,22.10
2016,04,20,14,22,22.10
2016,04,20,14,23,22.10
2016,04,20,14,24,22.10
2016,04,20,14,25,22.20
2016,04,20,14,26,22.20
2016,04,20,14,27,22.20
2016,04,20,14,28,22.20
2016,04,20,14,29,22.30
2016,04,20,14,30,22.30
2016,04,20,14,31,22.30
2016,04,20,14,32,22.30
2016,04,20,14,33,22.40
2016,04,20,14,34,22.40
2016,04,20,14,35,22.40
2016,04,20,14,36,22.50
2016,04,20,14,37,22.50
2016,04,20,14,38,22.60
2016,04,20,14,39,22.60
2016,04,20,14,40,22.60
2016,04,20,14,41,22.60
2016,04,20,14,42,22.60
2016,04,20,14,43,22.50
2016,04,20,14,44,22.50
2016,04,20,14,45,22.40
2016,04,20,14,46,22.40
2016,04,20,14,47,22.30
2016,04,20,14,48,22.30
2016,04,20,14,49,22.20
2016,04,20,14,50,22.20
2016,04,20,14,51,22.20
2016,04,20,14,52,22.20
2016,04,20,14,53,22.20
2016,04,20,14,54,22.20
2016,04,20,14,55,22.20
2016,04,20,14,56,22.20
2016,04,20,14,57,22.20
2016,04,20,14,58,22.20
2016,04,20,14,59,22.20
2016,04,20,15,00,22.20
2016,04,20,15,01,22.20
2016,04,20,15,02,22.20
2016,04,20,15,03,22.10
2016,04,20,15,04,22.10
2016,04,20,15,05,22.10
2016,04,20,15,06,22.10
2016,04,20,15,07,22.10
2016,04,20,15,08,22.20
2016,04,20,15,09,22.20
2016,04,20,15,10,22.20
2016,04,20,15,11,22.20
2016,04,20,15,12,22.30
2016,04,20,15,13,22.30
2016,04,20,15,14,22.30
2016,04,20,15,15,22.30
2016,04,20,15,16,22.40
2016,04,20,15,17,22.40
2016,04,20,15,18,22.40
2016,04,20,15,19,22.40
2016,04,20,15,20,22.40
2016,04,20,15,21,22.40
2016,04,20,15,22,22.40
2016,04,20,15,23,22.40
2016,04,20,15,24,22.40
2016,04,20,15,25,22.50
2016,04,20,15,26,22.50
2016,04,20,15,27,22.50
2016,04,20,15,28,22.50
2016,04,20,15,29,22.50
2016,04,20,15,30,22.60
2016,04,20,15,31,22.60
2016,04,20,15,32,22.60
2016,04,20,15,33,22.60
2016,04,20,15,34,22.60
2016,04,20,15,35,22.60
2016,04,20,15,36,22.70
2016,04,20,15,37,22.70
2016,04,20,15,38,22.70
2016,04,20,15,39,22.80
2016,04,20,15,40,22.80
2016,04,20,15,41,22.80
2016,04,20,15,42,22.80
2016,04,20,15,43,22.80
2016,04,20,15,44,22.90
2016,04,20,15,45,22.90
2016,04,20,15,46,22.90
2016,04,20,15,47,22.90
2016,04,20,15,48,23.00
2016,04,20,15,49,23.00
2016,04,20,15,50,23.10
2016,04,20,15,51,23.20
2016,04,20,15,52,23.20
2016,04,20,15,53,23.20
2016,04,20,15,54,23.20
2016,04,20,15,55,23.20
2016,04,20,15,56,23.30
2016,04,20,15,57,23.30
2016,04,20,15,58,23.30
2016,04,20,15,59,23.30
2016,04,20,16,00,23.30
2016,04,20,16,01,23.40
2016,04,20,16,02,23.40
2016,04,20,16,03,23.50
2016,04,20,16,04,23.60
2016,04,20,16,05,23.60
2016,04,20,16,06,23.60
2016,04,20,16,07,23.60
2016,04,20,16,08,23.70
2016,04,20,16,09,23.70
2016,04,20,16,10,23.70
2016,04,20,16,11,23.70
2016,04,20,16,12,23.80
2016,04,20,16,13,23.80
2016,04,20,16,14,23.80
2016,04,20,16,15,23.80
2016,04,20,16,16,23.80
2016,04,20,16,17,23.80
2016,04,20,16,18,23.80
2016,04,20,16,19,23.80
2016,04,20,16,20,23.80
2016,04,20,16,21,23.80
2016,04,20,16,22,23.80
2016,04,20,16,23,23.80
2016,04,20,16,24,23.80
2016,04,20,16,25,23.70
2016,04,20,16,26,23.70
2016,04,20,16,27,23.70
2016,04,20,16,28,23.70
2016,04,20,16,29,23.70
2016,04,20,16,30,23.70
2016,04,20,16,31,23.50
2016,04,20,16,32,23.30
2016,04,20,16,33,23.10
2016,04,20,16,34,22.90
2016,04,20,16,35,22.70
2016,04,20,16,36,22.60
2016,04,20,16,37,22.40
2016,04,20,16,38,22.30
2016,04,20,16,39,22.20
2016,04,20,16,40,22.10
2016,04,20,16,41,22.00
2016,04,20,16,42,22.00
2016,04,20,16,43,22.00
2016,04,20,16,44,22.00
2016,04,20,16,45,22.00
2016,04,20,16,46,22.00
2016,04,20,16,47,22.00
2016,04,20,16,48,22.10
2016,04,20,16,49,22.10
2016,04,20,16,50,22.20
2016,04,20,16,51,22.30
2016,04,20,16,52,22.40
2016,04,20,16,53,22.40
2016,04,20,16,54,22.40
2016,04,20,16,55,22.40
2016,04,20,16,56,22.40
2016,04,20,16,57,22.30
2016,04,20,16,58,22.20
2016,04,20,16,59,22.00
2016,04,20,17,00,21.80
2016,04,20,17,01,21.70
2016,04,20,17,02,21.60
2016,04,20,17,03,21.50
2016,04,20,17,04,21.50
2016,04,20,17,05,21.50
2016,04,20,17,06,21.50
2016,04,20,17,07,21.60
2016,04,20,17,08,21.50
2016,04,20,17,09,21.50
2016,04,20,17,10,21.60
2016,04,20,17,11,21.60
2016,04,20,17,12,21.60
2016,04,20,17,13,21.70
2016,04,20,17,14,21.70
2016,04,20,17,15,21.80
2016,04,20,17,16,21.80
2016,04,20,17,17,21.80
2016,04,20,17,18,21.80
2016,04,20,17,19,21.80
2016,04,20,17,20,21.80
2016,04,20,17,21,21.90
2016,04,20,17,22,21.90
2016,04,20,17,23,22.00
2016,04,20,17,24,22.10
2016,04,20,17,25,22.10
2016,04,20,17,26,22.10
2016,04,20,17,27,22.10
2016,04,20,17,28,22.10
2016,04,20,17,29,22.10
2016,04,20,17,30,22.10
2016,04,20,17,31,22.20
2016,04,20,17,32,22.20
2016,04,20,17,33,22.30
2016,04,20,17,34,22.30
2016,04,20,17,35,22.30
2016,04,20,17,36,22.30
2016,04,20,17,37,22.30
2016,04,20,17,38,22.30
2016,04,20,17,39,22.30
2016,04,20,17,40,22.30
2016,04,20,17,41,22.30
2016,04,20,17,42,22.40
2016,04,20,17,43,22.40
2016,04,20,17,44,22.40
2016,04,20,17,45,22.40
2016,04,20,17,46,22.50
2016,04,20,17,47,22.50
2016,04,20,17,48,22.50
2016,04,20,17,49,22.60
2016,04,20,17,50,22.60
2016,04,20,17,51,22.70
2016,04,20,17,52,22.70
2016,04,20,17,53,22.80
2016,04,20,17,54,22.80
2016,04,20,17,55,22.90
2016,04,20,17,56,23.00
2016,04,20,17,57,23.00
2016,04,20,17,58,23.10
2016,04,20,17,59,23.10
2016,04,20,18,00,23.10
2016,04,20,18,01,23.10
2016,04,20,18,02,23.10
2016,04,20,18,03,23.10
2016,04,20,18,04,23.00
2016,04,20,18,05,22.90
2016,04,20,18,06,22.90
2016,04,20,18,07,22.80
2016,04,20,18,08,22.80
2016,04,20,18,09,22.80
2016,04,20,18,10,22.80
2016,04,20,18,11,22.80
2016,04,20,18,12,22.80
2016,04,20,18,13,22.70
2016,04,20,18,14,22.70
2016,04,20,18,15,22.70
2016,04,20,18,16,22.70
2016,04,20,18,17,22.70
2016,04,20,18,18,22.60
2016,04,20,18,19,22.60
2016,04,20,18,20,22.60
2016,04,20,18,21,22.60
2016,04,20,18,22,22.60
2016,04,20,18,23,22.60
2016,04,20,18,24,22.70
2016,04,20,18,25,22.70
2016,04,20,18,26,22.70
2016,04,20,18,27,22.80
2016,04,20,18,28,22.80
2016,04,20,18,29,22.80
2016,04,20,18,30,22.80
2016,04,20,18,31,22.80
2016,04,20,18,32,22.80
2016,04,20,18,33,22.80
2016,04,20,18,34,22.80
2016,04,20,18,35,22.80
2016,04,20,18,36,22.80
2016,04,20,18,37,22.80
2016,04,20,18,38,22.80
2016,04,20,18,39,22.80
2016,04,20,18,40,22.80
2016,04,20,18,41,22.80
2016,04,20,18,42,22.90
2016,04,20,18,43,22.90
2016,04,20,18,44,22.90
2016,04,20,18,45,22.90
2016,04,20,18,46,22.90
2016,04,20,18,47,22.90
2016,04,20,18,48,22.90
2016,04,20,18,49,22.90
2016,04,20,18,50,22.90
2016,04,20,18,51,22.90
2016,04,20,18,52,22.90
2016,04,20,18,53,22.90
2016,04,20,18,54,22.90
2016,04,20,18,55,22.80
2016,04,20,18,56,22.80
2016,04,20,18,57,22.70
2016,04,20,18,58,22.60
2016,04,20,18,59,22.50
2016,04,20,19,00,22.40
2016,04,20,19,01,22.40
2016,04,20,19,02,22.30
2016,04,20,19,03,22.30
2016,04,20,19,04,22.20
2016,04,20,19,05,22.20
2016,04,20,19,06,22.20
2016,04,20,19,07,22.20
2016,04,20,19,08,22.10
2016,04,20,19,09,22.10
2016,04,20,19,10,22.00
2016,04,20,19,11,22.00
2016,04,20,19,12,21.90
2016,04,20,19,13,21.90
2016,04,20,19,14,21.80
2016,04,20,19,15,21.80
2016,04,20,19,16,21.80
2016,04,20,19,17,21.70
2016,04,20,19,18,21.70
2016,04,20,19,19,21.60
2016,04,20,19,20,21.50
2016,04,20,19,21,21.40
2016,04,20,19,22,21.40
2016,04,20,19,23,21.30
2016,04,20,19,24,21.20
2016,04,20,19,25,21.20
2016,04,20,19,26,21.10
2016,04,20,19,27,21.00
2016,04,20,19,28,20.90
2016,04,20,19,29,20.90
2016,04,20,19,30,20.80
2016,04,20,19,31,20.70
2016,04,20,19,32,20.70
2016,04,20,19,33,20.60
2016,04,20,19,34,20.60
2016,04,20,19,35,20.50
2016,04,20,19,36,20.40
2016,04,20,19,37,20.40
2016,04,20,19,38,20.40
2016,04,20,19,39,20.30
2016,04,20,19,40,20.30
2016,04,20,19,41,20.30
2016,04,20,19,42,20.30
2016,04,20,19,43,20.30
2016,04,20,19,44,20.30
2016,04,20,19,45,20.20
2016,04,20,19,46,20.20
2016,04,20,19,47,20.30
2016,04,20,19,48,20.30
2016,04,20,19,49,20.30
2016,04,20,19,50,20.30
2016,04,20,19,51,20.30
2016,04,20,19,52,20.30
2016,04,20,19,53,20.30
2016,04,20,19,54,20.20
2016,04,20,19,55,20.00
2016,04,20,19,56,19.80
2016,04,20,19,57,19.50
2016,04,20,19,58,19.10
2016,04,20,19,59,18.80
2016,04,20,20,00,18.60
2016,04,20,20,01,18.30
2016,04,20,20,02,18.10
2016,04,20,20,03,17.90
2016,04,20,20,04,17.70
2016,04,20,20,05,17.50
2016,04,20,20,06,17.40
2016,04,20,20,07,17.30
2016,04,20,20,08,17.20
2016,04,20,20,09,17.10
2016,04,20,20,10,17.00
2016,04,20,20,11,16.90
2016,04,20,20,12,16.90
2016,04,20,20,13,16.80
2016,04,20,20,14,16.80
2016,04,20,20,15,16.80
2016,04,20,20,16,16.70
2016,04,20,20,17,16.70
2016,04,20,20,18,16.80
2016,04,20,20,19,16.80
2016,04,20,20,20,16.80
2016,04,20,20,21,16.90
2016,04,20,20,22,17.00
2016,04,20,20,23,17.00
2016,04,20,20,24,17.10
2016,04,20,20,25,17.20
2016,04,20,20,26,17.30
2016,04,20,20,27,17.40
2016,04,20,20,28,17.50
2016,04,20,20,29,17.70
2016,04,20,20,30,17.90
2016,04,20,20,31,18.00
2016,04,20,20,32,18.10
2016,04,20,20,33,18.20
2016,04,20,20,34,18.40
2016,04,20,20,35,18.50
2016,04,20,20,36,18.60
2016,04,20,20,37,18.70
2016,04,20,20,38,18.80
2016,04,20,20,39,18.90
2016,04,20,20,40,19.00
2016,04,20,20,41,19.00
2016,04,20,20,42,19.10
2016,04,20,20,43,19.10
2016,04,20,20,44,19.10
2016,04,20,20,45,19.10
2016,04,20,20,46,19.10
2016,04,20,20,47,19.20
2016,04,20,20,48,19.20
2016,04,20,20,49,19.20
2016,04,20,20,50,19.20
2016,04,20,20,51,19.20
2016,04,20,20,52,19.10
2016,04,20,20,53,19.10
2016,04,20,20,54,19.10
2016,04,20,20,55,19.10
2016,04,20,20,56,19.10
2016,04,20,20,57,19.10
2016,04,20,20,58,19.10
2016,04,20,20,59,19.10
2016,04,20,21,00,19.10
2016,04,20,21,01,19.10
2016,04,20,21,02,19.10
2016,04,20,21,03,19.10
2016,04,20,21,04,19.20
2016,04,20,21,05,19.20
2016,04,20,21,06,19.20
2016,04,20,21,07,19.20
2016,04,20,21,08,19.30
2016,04,20,21,09,19.30
2016,04,20,21,10,19.30
2016,04,20,21,11,19.30
2016,04,20,21,12,19.30
2016,04,20,21,13,19.30
2016,04,20,21,14,19.30
2016,04,20,21,15,19.30
2016,04,20,21,16,19.30
2016,04,20,21,17,19.30
2016,04,20,21,18,19.30
2016,04,20,21,19,19.30
2016,04,20,21,20,19.30
2016,04,20,21,21,19.30
2016,04,20,21,22,19.30
2016,04,20,21,23,19.30
2016,04,20,21,24,19.30
2016,04,20,21,25,19.30
2016,04,20,21,26,19.30
2016,04,20,21,27,19.30
2016,04,20,21,28,19.20
2016,04,20,21,29,19.20
2016,04,20,21,30,19.10
2016,04,20,21,31,19.10
2016,04,20,21,32,19.00
2016,04,20,21,33,19.00
2016,04,20,21,34,19.00
2016,04,20,21,35,18.90
2016,04,20,21,36,18.90
2016,04,20,21,37,18.80
2016,04,20,21,38,18.80
2016,04,20,21,39,18.70
2016,04,20,21,40,18.70
2016,04,20,21,41,18.60
2016,04,20,21,42,18.60
2016,04,20,21,43,18.50
2016,04,20,21,44,18.50
2016,04,20,21,45,18.40
2016,04,20,21,46,18.40
2016,04,20,21,47,18.40
2016,04,20,21,48,18.40
2016,04,20,21,49,18.40